Race Result

Montessori Pirates & Princesses 5K

139 Brooks St, Ft Walton Beach, FL 32548
3.1 miles
Place Name Age Sex Age Group Event Time Pace
1 Jacob White 30 M Overall Male R 00:20:50 06:43:00
2 Jay McKenzie 55 M Male Masters R 00:22:18 07:11:00
3 Sundonia Williams 38 F Overall Female R 00:22:42 07:19:00
4 Shane Muscato 39 M 1M18 R 00:22:51 07:22:00
5 Joe Place 34 M 2M18 R 00:22:53 07:22:00
6 Margaret Compton 35 F 1F18 R 00:23:01 07:25:00
7 Crescent Seibert 41 F Female Masters R 00:25:08 08:06:00
8 Ashley Marzka 32 F 2F18 R 00:25:17 08:09:00
9 Eva Mullis 11 F 1F0-17 R 00:25:24 08:11:00
10 Emily Rigby 45 F R 00:25:41 08:17:00
11 McKenzie Smith 33 F R 00:25:55 08:21:00
12 William McArthur 57 M R 00:26:22 08:30:00
13 Andy Corbin 64 M Male G/M R 00:27:16 08:47:00
14 Bobby Parker 27 M R 00:27:34 08:53:00
15 Jonathan Calhoun 35 M R 00:29:54 09:38:00
16 Coy Browning 48 M R 00:30:41 09:53:00
17 Cadence Garza 7 F 2F0-17 R 00:30:56 09:58:00
18 Emilio Garza 46 M R 00:30:56 09:58:00
19 Kent Seuferer 25 M R 00:31:09 10:02:00
20 Andrew Gunter 40 M R 00:31:14 10:04:00
21 Karissa Gunter 34 F R 00:31:15 10:04:00
22 Katie Sharon 34 F R 00:31:31 10:10:00
23 Claudia Martin 43 F R 00:33:39 10:51:00
24 Jesse Cassoutt 35 F R 00:33:47 10:53:00
25 Brandi Guebert 36 F R 00:34:32 11:08:00
26 Lisa Buneta 30 F R 00:34:59 11:17:00
27 Hampton Baxley 8 M 1M0-17 R 00:35:13 11:21:00
28 Joshua Bauman 44 M R 00:36:01 11:37:00
29 Alyson Garza 39 F R 00:36:36 11:48:00
30 Ann Leslie 48 F R 00:36:49 11:52:00
31 Travis Espy 11 M 2M0-17 R 00:37:17 12:01:00
32 Hamp Baxley 46 M R 00:37:37 12:08:00
33 Kattie Hoy 34 F R 00:38:33 12:26:00
34 Annabelle Demis 8 F R 00:38:47 12:30:00
35 Heather Demis 37 F R 00:38:48 12:30:00
36 Bandit 0 R 00:39:09 12:37:00
37 JJ Carrillo 37 M R 00:39:10 12:38:00
38 Joshua Bell 5 M R 00:39:48 12:50:00
39 John Bell 33 M R 00:39:49 12:50:00
40 Janet Caouette 62 F Female G/M R 00:40:05 12:55:00
41 TJ Reed 15 M R 00:40:39 13:06:00
42 Tyrone Reed 42 M R 00:40:42 13:07:00
43 Keith Leslie 49 M R 00:40:53 13:11:00
44 Douglas Rigby 64 M R 00:41:42 13:27:00
45 Max Wiley 6 M R 00:42:13 13:37:00
46 Kevin Wiley 40 M R 00:42:15 13:37:00
47 Monica Clark 11 F R 00:43:34 14:03:00
48 Claudia McArthur 55 F R 00:43:49 14:08:00
49 Cassondra Wissel 44 F R 00:44:09 14:14:00
50 Caroline Frank 46 F R 00:44:28 14:20:00
51 Sharon Frazier 55 F R 00:44:47 14:26:00
52 Bruce Frazier 56 M R 00:45:16 14:36:00
53 James Ward 75 M R 00:48:09 15:31:00
54 Lamont Caouette 68 M R 00:50:06 16:09:00
55 Kim Jerome 40 F R 00:51:11 16:30:00
56 Cynthia Bauman 47 F R 00:54:32 17:35:00
57 Jennifer Berry 44 F R 00:54:33 17:35:00
58 Skylar Berry 20 F R 00:54:33 17:35:00
59 Glen Rolf 93 M R 00:55:41 17:57:00

Contact Information Mary Cotton marysunshine65@hotmail.com 850-420-0680